This is the latest recevied weather packets stored in our database for station/object IR3AS. If no packets are shown the sender has not sent any weather packets the latest 10 day(s).
| Time | Temp. | Humidity | Pressure | Rain* | Wind** | Luminosity | Snow |
|---|---|---|---|---|---|---|---|
| 1777854355 | 5° C | 62% | 857.9 hPa | 0 mm | - | - | - |
| 1777854055 | 5° C | 62% | 858.1 hPa | 0 mm | - | - | - |
| 1777853755 | 5° C | 62% | 858.3 hPa | 0 mm | - | - | - |
| 1777853455 | 5° C | 60% | 858.2 hPa | 0 mm | - | - | - |
| 1777853155 | 5° C | 59% | 858.3 hPa | 0 mm | - | - | - |
| 1777852855 | 5° C | 59% | 858.2 hPa | 0 mm | - | - | - |
| 1777852555 | 5° C | 59% | 858.2 hPa | 0 mm | - | - | - |
| 1777852255 | 5.56° C | 58% | 858.2 hPa | 0 mm | - | - | - |
| 1777851955 | 5.56° C | 57% | 858.2 hPa | 0 mm | - | - | - |
| 1777851655 | 5.56° C | 57% | 858.2 hPa | 0 mm | - | - | - |
| 1777851355 | 5.56° C | 58% | 858.3 hPa | 0 mm | - | - | - |
| 1777851055 | 5.56° C | 57% | 858.2 hPa | 0 mm | - | - | - |
| 1777850755 | 5° C | 60% | 858.3 hPa | 0 mm | - | - | - |
| 1777850455 | 5° C | 60% | 858.4 hPa | 0 mm | - | - | - |
| 1777850155 | 5° C | 62% | 858.5 hPa | 0 mm | - | - | - |
| 1777849855 | 5° C | 63% | 858.4 hPa | 0 mm | - | - | - |
| 1777849555 | 5° C | 64% | 858.5 hPa | 0 mm | - | - | - |
| 1777849255 | 5° C | 64% | 858.3 hPa | 0 mm | - | - | - |
| 1777848955 | 5° C | 63% | 858.5 hPa | 0 mm | - | - | - |
| 1777848655 | 5° C | 64% | 858.6 hPa | 0 mm | - | - | - |
| 1777848355 | 5° C | 64% | 858.6 hPa | 0 mm | - | - | - |
| 1777848055 | 5° C | 64% | 858.5 hPa | 0 mm | - | - | - |
| 1777847755 | 5° C | 65% | 858.8 hPa | 0 mm | - | - | - |
| 1777847455 | 5.56° C | 65% | 858.8 hPa | 0 mm | - | - | - |
| 1777847155 | 5° C | 66% | 858.9 hPa | 0 mm | - | - | - |
* Rain latest hour (hover to see other rain measurements)
** Current wind speed in m/s (hover to see current wind gust speed)